owner,sensor,date,latitude,longitude,vertical_datum,wind_speed,wind_to_direction,wind_speed_of_gust,qcFlag 
TABS,ioos:station:wmo:42046:1,2005-07-01T00:00:00Z,27.8903,-94.0367,4.0,4.227398727,183.3905398,5.3,'11111222,11111222,11111222' 
TABS,ioos:station:wmo:42046:1,2005-07-01T00:30:00Z,27.8903,-94.0367,4.0,4.54591025,184.7952416,5.83,'11111222,11111222,11111222' 
TABS,ioos:station:wmo:42046:1,2005-07-01T01:00:00Z,27.8903,-94.0367,4.0,4.869137501,188.146935,6.09,'11111222,11111222,11111222' 
TABS,ioos:station:wmo:42046:1,2005-07-01T01:30:00Z,27.8903,-94.0367,4.0,4.715336679,184.6225699,5.77,'11111222,11111222,11111222' 
TABS,ioos:station:wmo:42046:1,2005-07-01T02:00:00Z,27.8903,-94.0367,4.0,4.782102048,184.0772814,5.89,'11111222,11111222,11111222' 
TABS,ioos:station:wmo:42046:1,2005-07-01T02:30:00Z,27.8903,-94.0367,4.0,5.320939767,181.0770695,6.51,'11111222,11111222,11111222' 
TABS,ioos:station:wmo:42046:1,2005-07-01T03:00:00Z,27.8903,-94.0367,4.0,5.125631668,184.4760656,6.29,'11111222,11111222,11111222' 
TABS,ioos:station:wmo:42046:1,2005-07-01T03:30:00Z,27.8903,-94.0367,4.0,4.755092008,182.6520084,6.22,'11111222,11111222,11111222' 
TABS,ioos:station:wmo:42046:1,2005-07-01T04:00:00Z,27.8903,-94.0367,4.0,4.700861623,181.097227,5.92,'11111222,11111222,11111222' 
TABS,ioos:station:wmo:42046:1,2005-07-01T04:30:00Z,27.8903,-94.0367,4.0,4.980943686,183.7989731,6.29,'11111222,11111222,11111222' 
TABS,ioos:station:wmo:42046:1,2005-07-01T05:00:00Z,27.8903,-94.0367,4.0,4.660321877,183.8142764,6.08,'11111222,11111222,11111222' 
TABS,ioos:station:wmo:42046:1,2005-07-01T05:30:00Z,27.8903,-94.0367,4.0,4.860164606,179.528652,5.95,'11111222,11111222,11111222' 
TABS,ioos:station:wmo:42046:1,2005-07-01T06:00:00Z,27.8903,-94.0367,4.0,5.400749948,180.9550495,6.88,'11111222,11111222,11111222' 
TABS,ioos:station:wmo:42046:1,2005-07-01T06:30:00Z,27.8903,-94.0367,4.0,6.311204322,186.5509216,8.15,'11111222,11111222,11111222' 
TABS,ioos:station:wmo:42046:1,2005-07-01T07:00:00Z,27.8903,-94.0367,4.0,6.177151447,184.2708549,8.1,'11111222,11111222,11111222' 
TABS,ioos:station:wmo:42046:1,2005-07-01T07:30:00Z,27.8903,-94.0367,4.0,5.513111644,183.9525378,7.02,'11111222,11111222,11111222' 
TABS,ioos:station:wmo:42046:1,2005-07-01T08:00:00Z,27.8903,-94.0367,4.0,5.326434079,185.7107902,6.56,'11111222,11111222,11111222' 
TABS,ioos:station:wmo:42046:1,2005-07-01T08:30:00Z,27.8903,-94.0367,4.0,5.290793891,186.1849206,6.85,'11111222,11111222,11111222' 
TABS,ioos:station:wmo:42046:1,2005-07-01T09:00:00Z,27.8903,-94.0367,4.0,4.590250538,190.0370894,5.85,'11111222,11111222,11111222' 
TABS,ioos:station:wmo:42046:1,2005-07-01T09:30:00Z,27.8903,-94.0367,4.0,3.919706622,194.7809389,5.09,'11111222,11111222,11111222' 
TABS,ioos:station:wmo:42046:1,2005-07-01T10:00:00Z,27.8903,-94.0367,4.0,3.493136127,187.8983289,4.8,'11111222,11111222,11111222' 
TABS,ioos:station:wmo:42046:1,2005-07-01T10:30:00Z,27.8903,-94.0367,4.0,3.738997192,195.6719329,4.65,'11111222,11111222,11111222' 
TABS,ioos:station:wmo:42046:1,2005-07-01T11:00:00Z,27.8903,-94.0367,4.0,3.87104637,197.5925939,5.03,'11111222,11111222,11111222' 
TABS,ioos:station:wmo:42046:1,2005-07-01T11:30:00Z,27.8903,-94.0367,4.0,3.960934233,194.7731892,4.79,'11111222,11111222,11111222' 
TABS,ioos:station:wmo:42046:1,2005-07-01T12:00:00Z,27.8903,-94.0367,4.0,4.451381808,203.5705717,5.68,'11111222,11111222,11111222' 
TABS,ioos:station:wmo:42046:1,2005-07-01T12:30:00Z,27.8903,-94.0367,4.0,4.726616126,195.7124582,5.94,'11111222,11111222,11111222' 
TABS,ioos:station:wmo:42046:1,2005-07-01T13:00:00Z,27.8903,-94.0367,4.0,4.094142157,193.5612311,5.68,'11111222,11111222,11111222' 
TABS,ioos:station:wmo:42046:1,2005-07-01T13:30:00Z,27.8903,-94.0367,4.0,3.59805503,211.127752,4.7,'11111222,11111222,11111222' 
TABS,ioos:station:wmo:42046:1,2005-07-01T14:00:00Z,27.8903,-94.0367,4.0,3.035275935,209.1830886,3.87,'11111222,11111222,11111222' 
TABS,ioos:station:wmo:42046:1,2005-07-01T14:30:00Z,27.8903,-94.0367,4.0,3.279283458,198.4903675,4.0,'11111222,11111222,11111222' 
TABS,ioos:station:wmo:42046:1,2005-07-01T15:00:00Z,27.8903,-94.0367,4.0,3.431879951,193.9959295,4.2,'11111222,11111222,11111222' 
TABS,ioos:station:wmo:42046:1,2005-07-01T15:30:00Z,27.8903,-94.0367,4.0,3.28901201,193.3603977,4.04,'11111222,11111222,11111222' 
TABS,ioos:station:wmo:42046:1,2005-07-01T16:00:00Z,27.8903,-94.0367,4.0,3.047654836,191.1626377,3.86,'11111222,11111222,11111222' 
TABS,ioos:station:wmo:42046:1,2005-07-01T16:30:00Z,27.8903,-94.0367,4.0,3.179716969,193.6430933,4.08,'11111222,11111222,11111222' 
TABS,ioos:station:wmo:42046:1,2005-07-01T17:00:00Z,27.8903,-94.0367,4.0,2.571089263,191.4412276,3.65,'11111222,11111222,11111222' 
TABS,ioos:station:wmo:42046:1,2005-07-01T17:30:00Z,27.8903,-94.0367,4.0,2.688810146,190.9340017,3.56,'11111222,11111222,11111222' 
TABS,ioos:station:wmo:42046:1,2005-07-01T18:00:00Z,27.8903,-94.0367,4.0,2.494674327,190.8596883,3.25,'11111222,11111222,11111222' 
TABS,ioos:station:wmo:42046:1,2005-07-01T18:30:00Z,27.8903,-94.0367,4.0,2.861747718,177.997682,3.69,'11111222,11111222,11111222' 
TABS,ioos:station:wmo:42046:1,2005-07-01T19:00:00Z,27.8903,-94.0367,4.0,2.73806501,184.3989055,3.69,'11111222,11111222,11111222' 
TABS,ioos:station:wmo:42046:1,2005-07-01T19:30:00Z,27.8903,-94.0367,4.0,2.775842215,183.7181659,3.48,'11111222,11111222,11111222' 
TABS,ioos:station:wmo:42046:1,2005-07-01T20:00:00Z,27.8903,-94.0367,4.0,3.253459697,186.8849324,4.49,'11111222,11111222,11111222' 
TABS,ioos:station:wmo:42046:1,2005-07-01T20:30:00Z,27.8903,-94.0367,4.0,3.005079034,193.6664786,4.42,'11111222,11111222,11111222' 
TABS,ioos:station:wmo:42046:1,2005-07-01T21:00:00Z,27.8903,-94.0367,4.0,2.299847821,210.5793658,3.11,'11111222,11111222,11111222' 
TABS,ioos:station:wmo:42046:1,2005-07-01T21:30:00Z,27.8903,-94.0367,4.0,2.040245083,189.8780236,2.89,'11111222,11111222,11111222' 
TABS,ioos:station:wmo:42046:1,2005-07-01T22:00:00Z,27.8903,-94.0367,4.0,2.140093456,180.5356682,3.02,'11111222,11111222,11111222' 
TABS,ioos:station:wmo:42046:1,2005-07-01T22:30:00Z,27.8903,-94.0367,4.0,2.814604768,188.9939818,3.81,'11111222,11111222,11111222' 
TABS,ioos:station:wmo:42046:1,2005-07-01T23:00:00Z,27.8903,-94.0367,4.0,2.979194522,197.5836512,3.99,'11111222,11111222,11111222' 
TABS,ioos:station:wmo:42046:1,2005-07-01T23:30:00Z,27.8903,-94.0367,4.0,2.849227966,198.625889,3.81,'11111222,11111222,11111222' 
TABS,ioos:station:wmo:42046:1,2005-07-02T00:00:00Z,27.8903,-94.0367,4.0,3.398411394,196.4087412,4.62,'11111222,11111222,11111222' 
TABS,ioos:station:wmo:42046:1,2005-07-02T00:30:00Z,27.8903,-94.0367,4.0,3.432098483,194.6842595,4.49,'11111222,11111222,11111222' 
TABS,ioos:station:wmo:42046:1,2005-07-02T01:00:00Z,27.8903,-94.0367,4.0,3.933255649,182.3315701,5.31,'11111222,11111222,11111222' 
TABS,ioos:station:wmo:42046:1,2005-07-02T01:30:00Z,27.8903,-94.0367,4.0,4.611084471,178.7575497,6.01,'11111222,11111222,11111222' 
TABS,ioos:station:wmo:42046:1,2005-07-02T02:00:00Z,27.8903,-94.0367,4.0,4.158773858,183.7226327,5.43,'11111222,11111222,11111222' 
TABS,ioos:station:wmo:42046:1,2005-07-02T02:30:00Z,27.8903,-94.0367,4.0,4.990270534,176.3236172,6.24,'11111222,11111222,11111222' 
TABS,ioos:station:wmo:42046:1,2005-07-02T03:00:00Z,27.8903,-94.0367,4.0,6.135943285,177.478215,7.81,'11111222,11111222,11111222' 
TABS,ioos:station:wmo:42046:1,2005-07-02T03:30:00Z,27.8903,-94.0367,4.0,6.790360815,179.4095546,8.9,'11111222,11111222,11111222' 
TABS,ioos:station:wmo:42046:1,2005-07-02T04:00:00Z,27.8903,-94.0367,4.0,6.150292676,179.4412463,7.8,'11111222,11111222,11111222' 
TABS,ioos:station:wmo:42046:1,2005-07-02T04:30:00Z,27.8903,-94.0367,4.0,6.023362848,185.0482235,7.69,'11111222,11111222,11111222' 
TABS,ioos:station:wmo:42046:1,2005-07-02T05:00:00Z,27.8903,-94.0367,4.0,5.971239402,185.8635528,7.39,'11111222,11111222,11111222' 
TABS,ioos:station:wmo:42046:1,2005-07-02T05:30:00Z,27.8903,-94.0367,4.0,5.859590429,186.6643322,7.92,'11111222,11111222,11111222' 
TABS,ioos:station:wmo:42046:1,2005-07-02T06:00:00Z,27.8903,-94.0367,4.0,5.732660813,189.741839,7.64,'11111222,11111222,11111222' 
TABS,ioos:station:wmo:42046:1,2005-07-02T06:30:00Z,27.8903,-94.0367,4.0,6.133163947,197.1647144,7.6,'11111222,11111222,11111222' 
TABS,ioos:station:wmo:42046:1,2005-07-02T07:00:00Z,27.8903,-94.0367,4.0,6.55893284,199.0428582,8.15,'11111222,11111222,11111222' 
TABS,ioos:station:wmo:42046:1,2005-07-02T07:30:00Z,27.8903,-94.0367,4.0,6.004431697,200.064795,7.59,'11111222,11111222,11111222' 
TABS,ioos:station:wmo:42046:1,2005-07-02T08:00:00Z,27.8903,-94.0367,4.0,5.972712951,200.8930388,7.12,'11111222,11111222,11111222' 
TABS,ioos:station:wmo:42046:1,2005-07-02T08:30:00Z,27.8903,-94.0367,4.0,5.121640362,202.2585949,6.52,'11111222,11111222,11111222' 
TABS,ioos:station:wmo:42046:1,2005-07-02T09:00:00Z,27.8903,-94.0367,4.0,5.085056539,206.0109054,6.46,'11111222,11111222,11111222' 
TABS,ioos:station:wmo:42046:1,2005-07-02T09:30:00Z,27.8903,-94.0367,4.0,5.004607877,205.9507926,6.22,'11111222,11111222,11111222' 
TABS,ioos:station:wmo:42046:1,2005-07-02T10:00:00Z,27.8903,-94.0367,4.0,4.453133728,199.4116519,5.84,'11111222,11111222,11111222' 
TABS,ioos:station:wmo:42046:1,2005-07-02T10:30:00Z,27.8903,-94.0367,4.0,4.823712263,209.700824,6.58,'11111222,11111222,11111222' 
TABS,ioos:station:wmo:42046:1,2005-07-02T11:00:00Z,27.8903,-94.0367,4.0,5.206342286,220.4820444,6.41,'11111222,11111222,11111222' 
TABS,ioos:station:wmo:42046:1,2005-07-02T11:30:00Z,27.8903,-94.0367,4.0,4.673339277,210.9008168,6.12,'11111222,11111222,11111222' 
TABS,ioos:station:wmo:42046:1,2005-07-02T12:00:00Z,27.8903,-94.0367,4.0,4.83206995,217.178315,5.97,'11111222,11111222,11111222' 
TABS,ioos:station:wmo:42046:1,2005-07-02T12:30:00Z,27.8903,-94.0367,4.0,4.29773196,222.0765085,5.25,'11111222,11111222,11111222' 
TABS,ioos:station:wmo:42046:1,2005-07-02T13:00:00Z,27.8903,-94.0367,4.0,4.261689806,234.7437237,5.09,'11111222,11111222,11111222' 
TABS,ioos:station:wmo:42046:1,2005-07-02T13:30:00Z,27.8903,-94.0367,4.0,3.747986126,234.995538,4.82,'11111222,11111222,11111222' 
TABS,ioos:station:wmo:42046:1,2005-07-02T14:00:00Z,27.8903,-94.0367,4.0,3.792466216,243.029624,4.77,'11111222,11111222,11111222' 
TABS,ioos:station:wmo:42046:1,2005-07-02T14:30:00Z,27.8903,-94.0367,4.0,2.994561738,238.3800371,4.25,'11111222,11111222,11111222' 
TABS,ioos:station:wmo:42046:1,2005-07-02T15:00:00Z,27.8903,-94.0367,4.0,2.651980392,243.3383911,3.56,'11111222,11111222,11111222' 
TABS,ioos:station:wmo:42046:1,2005-07-02T15:30:00Z,27.8903,-94.0367,4.0,2.114048249,246.5879406,2.87,'11111222,11111222,11111222' 
TABS,ioos:station:wmo:42046:1,2005-07-02T16:00:00Z,27.8903,-94.0367,4.0,2.115892247,242.1027942,2.84,'11111222,11111222,11111222' 
TABS,ioos:station:wmo:42046:1,2005-07-02T16:30:00Z,27.8903,-94.0367,4.0,2.595630944,218.9012443,3.56,'11111222,11111222,11111222' 
TABS,ioos:station:wmo:42046:1,2005-07-02T17:00:00Z,27.8903,-94.0367,4.0,2.312163489,242.9917266,2.97,'11111222,11111222,11111222' 
TABS,ioos:station:wmo:42046:1,2005-07-02T17:30:00Z,27.8903,-94.0367,4.0,1.656804153,238.3246053,2.42,'11111222,11111222,11111222' 
TABS,ioos:station:wmo:42046:1,2005-07-02T18:00:00Z,27.8903,-94.0367,4.0,2.540177159,196.9370659,3.4,'11111222,11111222,11111222' 
TABS,ioos:station:wmo:42046:1,2005-07-02T18:30:00Z,27.8903,-94.0367,4.0,2.261415486,177.9728925,3.24,'11111222,11111222,11111222' 
TABS,ioos:station:wmo:42046:1,2005-07-02T19:00:00Z,27.8903,-94.0367,4.0,1.802692431,192.494515,2.67,'11111222,11111222,11111222' 
TABS,ioos:station:wmo:42046:1,2005-07-02T19:30:00Z,27.8903,-94.0367,4.0,2.767417569,186.4318408,3.94,'11111222,11111222,11111222' 
TABS,ioos:station:wmo:42046:1,2005-07-02T20:00:00Z,27.8903,-94.0367,4.0,2.851420699,178.1914754,4.04,'11111222,11111222,11111222' 
TABS,ioos:station:wmo:42046:1,2005-07-02T20:30:00Z,27.8903,-94.0367,4.0,3.317468915,174.1177786,4.43,'11111222,11111222,11111222' 
TABS,ioos:station:wmo:42046:1,2005-07-02T21:00:00Z,27.8903,-94.0367,4.0,2.615358484,197.811609,3.55,'11111222,11111222,11111222' 
TABS,ioos:station:wmo:42046:1,2005-07-02T21:30:00Z,27.8903,-94.0367,4.0,2.406366556,215.8699501,3.5,'11111222,11111222,11111222' 
TABS,ioos:station:wmo:42046:1,2005-07-02T22:00:00Z,27.8903,-94.0367,4.0,2.835207223,196.3897125,3.88,'11111222,11111222,11111222' 
TABS,ioos:station:wmo:42046:1,2005-07-02T22:30:00Z,27.8903,-94.0367,4.0,3.212553502,186.7933858,4.21,'11111222,11111222,11111222' 
TABS,ioos:station:wmo:42046:1,2005-07-02T23:00:00Z,27.8903,-94.0367,4.0,3.406024075,185.5601447,4.25,'11111222,11111222,11111222' 
TABS,ioos:station:wmo:42046:1,2005-07-02T23:30:00Z,27.8903,-94.0367,4.0,3.450231876,179.3359429,4.59,'11111222,11111222,11111222' 
TABS,ioos:station:wmo:42046:1,2005-07-03T00:00:00Z,27.8903,-94.0367,4.0,4.355972911,190.7168014,5.45,'11111222,11111222,11111222' 
TABS,ioos:station:wmo:42046:1,2005-07-03T00:30:00Z,27.8903,-94.0367,4.0,3.97959797,188.089572,5.39,'11111222,11111222,11111222' 
TABS,ioos:station:wmo:42046:1,2005-07-03T01:00:00Z,27.8903,-94.0367,4.0,3.322002408,172.0408671,4.11,'11111222,11111222,11111222' 
TABS,ioos:station:wmo:42046:1,2005-07-03T01:30:00Z,27.8903,-94.0367,4.0,4.045948591,165.1053164,5.59,'11111222,11111222,11111222' 
TABS,ioos:station:wmo:42046:1,2005-07-03T02:00:00Z,27.8903,-94.0367,4.0,4.128195732,176.3892543,5.28,'11111222,11111222,11111222' 
TABS,ioos:station:wmo:42046:1,2005-07-03T02:30:00Z,27.8903,-94.0367,4.0,4.08827592,173.2576396,4.92,'11111222,11111222,11111222' 
TABS,ioos:station:wmo:42046:1,2005-07-03T03:00:00Z,27.8903,-94.0367,4.0,4.68027777,176.202431,5.58,'11111222,11111222,11111222' 
TABS,ioos:station:wmo:42046:1,2005-07-03T03:30:00Z,27.8903,-94.0367,4.0,5.119394495,176.528604,6.2,'11111222,11111222,11111222' 
TABS,ioos:station:wmo:42046:1,2005-07-03T04:00:00Z,27.8903,-94.0367,4.0,5.267807893,173.1315352,6.18,'11111222,11111222,11111222' 
TABS,ioos:station:wmo:42046:1,2005-07-03T04:30:00Z,27.8903,-94.0367,4.0,6.366160538,177.4793884,7.55,'11111222,11111222,11111222' 
TABS,ioos:station:wmo:42046:1,2005-07-03T05:00:00Z,27.8903,-94.0367,4.0,7.054813959,174.3057931,8.52,'11111222,11111222,11111222' 
TABS,ioos:station:wmo:42046:1,2005-07-03T05:30:00Z,27.8903,-94.0367,4.0,6.602189031,178.5247398,8.25,'11111222,11111222,11111222' 
TABS,ioos:station:wmo:42046:1,2005-07-03T06:00:00Z,27.8903,-94.0367,4.0,6.45310003,178.2241704,8.12,'11111222,11111222,11111222' 
TABS,ioos:station:wmo:42046:1,2005-07-03T06:30:00Z,27.8903,-94.0367,4.0,6.332021794,183.5313818,8.07,'11111222,11111222,11111222' 
TABS,ioos:station:wmo:42046:1,2005-07-03T07:00:00Z,27.8903,-94.0367,4.0,5.991410518,181.2434934,7.72,'11111222,11111222,11111222' 
TABS,ioos:station:wmo:42046:1,2005-07-03T07:30:00Z,27.8903,-94.0367,4.0,6.042598779,183.7007449,7.9,'11111222,11111222,11111222' 
TABS,ioos:station:wmo:42046:1,2005-07-03T08:00:00Z,27.8903,-94.0367,4.0,5.7218878,185.0133125,7.5,'11111222,11111222,11111222' 
TABS,ioos:station:wmo:42046:1,2005-07-03T08:30:00Z,27.8903,-94.0367,4.0,5.236458727,182.846217,6.71,'11111222,11111222,11111222' 
TABS,ioos:station:wmo:42046:1,2005-07-03T09:00:00Z,27.8903,-94.0367,4.0,5.024937811,190.5497974,6.67,'11111222,11111222,11111222' 
TABS,ioos:station:wmo:42046:1,2005-07-03T09:30:00Z,27.8903,-94.0367,4.0,5.310602602,188.6643256,6.55,'11111222,11111222,11111222' 
TABS,ioos:station:wmo:42046:1,2005-07-03T10:00:00Z,27.8903,-94.0367,4.0,5.134014024,186.5991958,6.55,'11111222,11111222,11111222' 
TABS,ioos:station:wmo:42046:1,2005-07-03T10:30:00Z,27.8903,-94.0367,4.0,4.791502896,181.4352918,5.88,'11111222,11111222,11111222' 
TABS,ioos:station:wmo:42046:1,2005-07-03T11:00:00Z,27.8903,-94.0367,4.0,4.743806488,182.2956425,6.57,'11111222,11111222,11111222' 
TABS,ioos:station:wmo:42046:1,2005-07-03T11:30:00Z,27.8903,-94.0367,4.0,4.154864619,194.6384548,5.31,'11111222,11111222,11111222' 
TABS,ioos:station:wmo:42046:1,2005-07-03T12:00:00Z,27.8903,-94.0367,4.0,3.493222008,182.4612594,4.6,'11111222,11111222,11111222' 
TABS,ioos:station:wmo:42046:1,2005-07-03T12:30:00Z,27.8903,-94.0367,4.0,3.911547009,181.6116834,4.84,'11111222,11111222,11111222' 
TABS,ioos:station:wmo:42046:1,2005-07-03T13:00:00Z,27.8903,-94.0367,4.0,3.945072876,182.9061247,5.36,'11111222,11111222,11111222' 
TABS,ioos:station:wmo:42046:1,2005-07-03T13:30:00Z,27.8903,-94.0367,4.0,4.613133425,182.1121081,5.65,'11111222,11111222,11111222' 
TABS,ioos:station:wmo:42046:1,2005-07-03T14:00:00Z,27.8903,-94.0367,4.0,4.814156209,182.3811943,5.85,'11111222,11111222,11111222' 
TABS,ioos:station:wmo:42046:1,2005-07-03T14:30:00Z,27.8903,-94.0367,4.0,5.084220688,184.2865443,6.28,'11111222,11111222,11111222' 
TABS,ioos:station:wmo:42046:1,2005-07-03T15:00:00Z,27.8903,-94.0367,4.0,4.478805644,185.2525367,5.7,'11111222,11111222,11111222' 
TABS,ioos:station:wmo:42046:1,2005-07-03T15:30:00Z,27.8903,-94.0367,4.0,3.330615559,186.3783818,4.61,'11111222,11111222,11111222' 
TABS,ioos:station:wmo:42046:1,2005-07-03T16:00:00Z,27.8903,-94.0367,4.0,2.613541658,200.376598,3.54,'11111222,11111222,11111222' 
TABS,ioos:station:wmo:42046:1,2005-07-03T16:30:00Z,27.8903,-94.0367,4.0,3.170015773,202.4392797,4.08,'11111222,11111222,11111222' 
TABS,ioos:station:wmo:42046:1,2005-07-03T17:00:00Z,27.8903,-94.0367,4.0,2.667508201,184.3000632,3.68,'11111222,11111222,11111222' 
TABS,ioos:station:wmo:42046:1,2005-07-03T17:30:00Z,27.8903,-94.0367,4.0,1.651302516,196.8988196,2.69,'11111222,11111222,11111222' 
TABS,ioos:station:wmo:42046:1,2005-07-03T18:00:00Z,27.8903,-94.0367,4.0,0.998649088,145.1962801,1.95,'11111222,11111222,11111222' 
TABS,ioos:station:wmo:42046:1,2005-07-03T18:30:00Z,27.8903,-94.0367,4.0,1.931320792,121.8799432,3.31,'11111222,11111222,11111222' 
TABS,ioos:station:wmo:42046:1,2005-07-03T19:00:00Z,27.8903,-94.0367,4.0,1.879627623,121.068659,3.2,'11111222,11111222,11111222' 
TABS,ioos:station:wmo:42046:1,2005-07-03T19:30:00Z,27.8903,-94.0367,4.0,3.211230294,140.5602499,4.37,'11111222,11111222,11111222' 
TABS,ioos:station:wmo:42046:1,2005-07-03T20:00:00Z,27.8903,-94.0367,4.0,3.388952641,148.5146169,4.4,'11111222,11111222,11111222' 
TABS,ioos:station:wmo:42046:1,2005-07-03T20:30:00Z,27.8903,-94.0367,4.0,3.994721517,152.0880917,5.19,'11111222,11111222,11111222' 
TABS,ioos:station:wmo:42046:1,2005-07-03T21:00:00Z,27.8903,-94.0367,4.0,3.630013774,143.2882379,4.69,'11111222,11111222,11111222' 
TABS,ioos:station:wmo:42046:1,2005-07-03T21:30:00Z,27.8903,-94.0367,4.0,3.317604558,136.5880614,4.63,'11111222,11111222,11111222' 
TABS,ioos:station:wmo:42046:1,2005-07-03T22:00:00Z,27.8903,-94.0367,4.0,3.715400382,141.5572469,4.9,'11111222,11111222,11111222' 
TABS,ioos:station:wmo:42046:1,2005-07-03T22:30:00Z,27.8903,-94.0367,4.0,4.20773098,147.0277961,5.83,'11111222,11111222,11111222' 
TABS,ioos:station:wmo:42046:1,2005-07-03T23:00:00Z,27.8903,-94.0367,4.0,4.38265901,142.1367814,5.76,'11111222,11111222,11111222' 
TABS,ioos:station:wmo:42046:1,2005-07-03T23:30:00Z,27.8903,-94.0367,4.0,5.348382933,150.1756738,6.82,'11111222,11111222,11111222' 
TABS,ioos:station:wmo:42046:1,2005-07-04T00:00:00Z,27.8903,-94.0367,4.0,5.799698268,151.3582803,7.54,'11111222,11111222,11111222' 
TABS,ioos:station:wmo:42046:1,2005-07-04T00:30:00Z,27.8903,-94.0367,4.0,6.06011551,169.0611449,7.61,'11111222,11111222,11111222' 
TABS,ioos:station:wmo:42046:1,2005-07-04T01:00:00Z,27.8903,-94.0367,4.0,5.722184897,159.2215478,7.76,'11111222,11111222,11111222' 
TABS,ioos:station:wmo:42046:1,2005-07-04T01:30:00Z,27.8903,-94.0367,4.0,5.780216259,167.8154813,7.32,'11111222,11111222,11111222' 
TABS,ioos:station:wmo:42046:1,2005-07-04T02:00:00Z,27.8903,-94.0367,4.0,5.546611578,159.6376564,7.43,'11111222,11111222,11111222' 
TABS,ioos:station:wmo:42046:1,2005-07-04T02:30:00Z,27.8903,-94.0367,4.0,5.760668364,167.7734963,7.41,'11111222,11111222,11111222' 
TABS,ioos:station:wmo:42046:1,2005-07-04T03:00:00Z,27.8903,-94.0367,4.0,6.58708585,161.3177495,8.75,'11111222,11111222,11111222' 
TABS,ioos:station:wmo:42046:1,2005-07-04T03:30:00Z,27.8903,-94.0367,4.0,6.478595527,160.0549297,8.07,'11111222,11111222,11111222' 
TABS,ioos:station:wmo:42046:1,2005-07-04T04:00:00Z,27.8903,-94.0367,4.0,6.21134446,162.3820916,8.08,'11111222,11111222,11111222' 
TABS,ioos:station:wmo:42046:1,2005-07-04T04:30:00Z,27.8903,-94.0367,4.0,5.915953009,165.2123166,7.85,'11111222,11111222,11111222' 
TABS,ioos:station:wmo:42046:1,2005-07-04T05:00:00Z,27.8903,-94.0367,4.0,5.542355095,165.2619439,7.26,'11111222,11111222,11111222' 
TABS,ioos:station:wmo:42046:1,2005-07-04T05:30:00Z,27.8903,-94.0367,4.0,5.635689842,162.3369166,7.56,'11111222,11111222,11111222' 
TABS,ioos:station:wmo:42046:1,2005-07-04T06:00:00Z,27.8903,-94.0367,4.0,5.360195892,166.4047269,7.04,'11111222,11111222,11111222' 
TABS,ioos:station:wmo:42046:1,2005-07-04T06:30:00Z,27.8903,-94.0367,4.0,4.548197445,168.0726521,5.77,'11111222,11111222,11111222' 
TABS,ioos:station:wmo:42046:1,2005-07-04T07:00:00Z,27.8903,-94.0367,4.0,4.965047835,189.9747427,6.29,'11111222,11111222,11111222' 
TABS,ioos:station:wmo:42046:1,2005-07-04T07:30:00Z,27.8903,-94.0367,4.0,3.900461511,180.8816124,5.29,'11111222,11111222,11111222' 
TABS,ioos:station:wmo:42046:1,2005-07-04T08:00:00Z,27.8903,-94.0367,4.0,3.453244851,195.9683597,4.75,'11111222,11111222,11111222' 
TABS,ioos:station:wmo:42046:1,2005-07-04T08:30:00Z,27.8903,-94.0367,4.0,4.930040568,179.767775,6.25,'11111222,11111222,11111222' 
TABS,ioos:station:wmo:42046:1,2005-07-04T09:00:00Z,27.8903,-94.0367,4.0,5.290945095,181.083175,6.9,'11111222,11111222,11111222' 
TABS,ioos:station:wmo:42046:1,2005-07-04T09:30:00Z,27.8903,-94.0367,4.0,5.626259859,172.6478483,6.86,'11111222,11111222,11111222' 
TABS,ioos:station:wmo:42046:1,2005-07-04T10:00:00Z,27.8903,-94.0367,4.0,5.221206757,173.7327437,6.28,'11111222,11111222,11111222' 
TABS,ioos:station:wmo:42046:1,2005-07-04T10:30:00Z,27.8903,-94.0367,4.0,5.203777474,169.7052361,6.49,'11111222,11111222,11111222' 
TABS,ioos:station:wmo:42046:1,2005-07-04T11:00:00Z,27.8903,-94.0367,4.0,5.269269399,167.2827274,6.52,'11111222,11111222,11111222' 
TABS,ioos:station:wmo:42046:1,2005-07-04T11:30:00Z,27.8903,-94.0367,4.0,3.972014602,167.6435375,5.3,'11111222,11111222,11111222' 
TABS,ioos:station:wmo:42046:1,2005-07-04T12:00:00Z,27.8903,-94.0367,4.0,3.960113635,164.1740934,5.54,'11111222,11111222,11111222' 
TABS,ioos:station:wmo:42046:1,2005-07-04T12:30:00Z,27.8903,-94.0367,4.0,4.535239795,160.686361,6.11,'11111222,11111222,11111222' 
TABS,ioos:station:wmo:42046:1,2005-07-04T13:00:00Z,27.8903,-94.0367,4.0,4.574461717,149.9602231,6.05,'11111222,11111222,11111222' 
TABS,ioos:station:wmo:42046:1,2005-07-04T13:30:00Z,27.8903,-94.0367,4.0,4.340103685,143.5264456,5.52,'11111222,11111222,11111222' 
TABS,ioos:station:wmo:42046:1,2005-07-04T14:00:00Z,27.8903,-94.0367,4.0,4.667172592,148.0469535,5.91,'11111222,11111222,11111222' 
TABS,ioos:station:wmo:42046:1,2005-07-04T14:30:00Z,27.8903,-94.0367,4.0,5.138813093,149.9926399,6.45,'11111222,11111222,11111222' 
TABS,ioos:station:wmo:42046:1,2005-07-04T15:00:00Z,27.8903,-94.0367,4.0,5.377080993,150.7179833,7.11,'11111222,11111222,11111222' 
TABS,ioos:station:wmo:42046:1,2005-07-04T15:30:00Z,27.8903,-94.0367,4.0,5.835614792,146.7459216,7.48,'11111222,11111222,11111222' 
TABS,ioos:station:wmo:42046:1,2005-07-04T16:00:00Z,27.8903,-94.0367,4.0,5.693856338,149.3816766,7.44,'11111222,11111222,11111222' 
TABS,ioos:station:wmo:42046:1,2005-07-04T16:30:00Z,27.8903,-94.0367,4.0,6.118365795,146.4660572,8.08,'11111222,11111222,11111222' 
TABS,ioos:station:wmo:42046:1,2005-07-04T17:00:00Z,27.8903,-94.0367,4.0,6.047230771,149.491502,7.47,'11111222,11111222,11111222' 
TABS,ioos:station:wmo:42046:1,2005-07-04T17:30:00Z,27.8903,-94.0367,4.0,5.724377695,153.2114114,7.68,'11111222,11111222,11111222' 
TABS,ioos:station:wmo:42046:1,2005-07-04T18:00:00Z,27.8903,-94.0367,4.0,5.218984576,153.4843179,7.01,'11111222,11111222,11111222' 
TABS,ioos:station:wmo:42046:1,2005-07-04T18:30:00Z,27.8903,-94.0367,4.0,5.071972003,154.2940865,6.71,'11111222,11111222,11111222' 